[[{"header":{"parameterUnit":"m.s-1","parameterCategory":1,"la1":30.2991,"la2":30.254,"lo1":-89.0895,"lo2":-89.0444,"dy":0.0017,"dx":0.0017,"nx":28,"ny":28,"refTime":"2024-04-01T03:00:00:Z","depth":0,"parameterNumber":2,"parameterNumberName":"U-component_of_WINDS"},"data":[0,0,0,0,0,0,0,0,0,0,0,0,0,0,0,0,0,0,0,0,0,0,0,0,0,0,0,0,0,0,0,0,0,0,0,0,0,0,0,0,0,0,0,0,0,0,0,0,0,0,0,0,0,0,0,0,0,0,-2.3682,-2.3681,0,-2.364,-2.364,-2.3639,-2.3576,-2.3574,-2.3573,-2.3572,-2.353,-2.353,-2.353,0,0,0,0,0,0,0,0,0,0,0,0,0,-2.3707,-2.3707,-2.3682,-2.3681,-2.3681,-2.364,-2.364,-2.3639,-2.3576,-2.3574,-2.3573,-2.3572,-2.353,-2.353,-2.353,0,0,0,0,0,0,0,0,0,0,0,0,0,-2.3684,-2.3707,-2.3682,-2.3644,-2.364,-2.364,-2.364,-2.3639,-2.3576,-2.3574,-2.3573,-2.3571,-2.353,-2.353,-2.353,-2.3563,0,0,-2.353,-2.353,0,0,0,0,0,0,0,0,-2.3685,-2.3683,-2.365,-2.3647,-2.3642,-2.3611,-2.3633,-2.3614,-2.3576,-2.36,-2.3572,-2.357,-2.3558,-2.3556,-2.3552,-2.3561,-2.356,-2.353,-2.353,-2.353,-2.353,0,0,0,0,0,0,0,-2.3687,-2.3684,-2.3665,-2.365,-2.3645,-2.363,-2.3624,-2.3629,-2.359,-2.3598,-2.3593,-2.3589,-2.3556,-2.3552,-2.355,-2.3559,-2.353,-2.353,-2.3529,-2.3529,-2.3593,-2.3594,0,0,0,0,0,0,-2.3694,-2.3686,-2.3666,-2.3664,-2.366,-2.363,-2.3625,-2.3623,-2.3589,-2.3583,-2.3591,-2.3587,-2.3553,-2.3551,-2.3549,-2.3584,-2.353,-2.3529,-2.3529,-2.3591,-2.3593,-2.3595,0,0,0,0,0,0,-2.3695,-2.3693,-2.3668,-2.3674,-2.3669,-2.3632,-2.363,-2.3623,-2.3619,-2.3584,-2.3576,-2.3594,-2.3552,-2.3549,-2.356,-2.3582,-2.3529,-2.3529,-2.3589,-2.3592,-2.3594,-2.3656,0,0,0,0,0,0,-2.3696,-2.3693,-2.3705,-2.3674,-2.3669,-2.368,-2.3632,-2.3623,-2.3619,-2.3613,-2.3585,-2.3579,-2.355,-2.356,-2.356,-2.3581,-2.3529,-2.3587,-2.359,-2.3593,-2.3652,-2.366,-2.3668,0,0,0,0,0,-2.3697,-2.3725,-2.3706,-2.3704,-2.3684,-2.3681,-2.3678,-2.3645,-2.3621,-2.3633,-2.361,-2.3579,-2.358,-2.3562,-2.3561,-2.3582,-2.3585,-2.3589,-2.3593,-2.3648,-2.3659,-2.3668,0,0,0,0,0,0,-2.3759,-2.372,-2.3699,-2.3718,-2.3704,-2.3671,-2.3684,-2.3658,-2.365,-2.3644,-2.3604,-2.3598,-2.3614,-2.3599,-2.358,-2.3612,-2.3578,-2.3582,-2.362,-2.363,-2.3638,-2.364,-2.3529,0,0,0,0,0,-2.3776,-2.3777,-2.3743,-2.3763,-2.3756,-2.3722,-2.372,-2.3696,-2.3679,-2.3672,-2.365,-2.3636,-2.3632,-2.3631,-2.3626,-2.3651,-2.3643,-2.3665,-2.3673,-2.3679,-2.3682,-2.3692,-2.3701,-2.3608,-2.3608,-2.3608,0,0,-2.3808,-2.3787,-2.379,-2.3775,-2.376,-2.3762,-2.3717,-2.3721,-2.3722,-2.3673,-2.3681,-2.3665,-2.3646,-2.3664,-2.367,-2.3652,-2.3707,-2.3684,-2.369,-2.3689,-2.3697,-2.3706,-2.3714,-2.3611,-2.361,-2.361,0,0,-2.3869,-2.3854,-2.3868,-2.3855,-2.3834,-2.3811,-2.3815,-2.3786,-2.3773,-2.3781,-2.3744,-2.3745,-2.3741,-2.3728,-2.3721,-2.3778,-2.3749,-2.3778,-2.3818,-2.3829,-2.3836,-2.3843,-2.3861,-2.3868,-2.3782,-2.3782,-2.3782,0,-2.3912,-2.3913,-2.3879,-2.3885,-2.3879,-2.3835,-2.3848,-2.3838,-2.3817,-2.3813,-2.3794,-2.3787,-2.3771,-2.3784,-2.3798,-2.3795,-2.3797,-2.3779,-2.3838,-2.3844,-2.3849,-2.3866,-2.3873,-2.3785,-2.3785,-2.3785,-2.3784,0,-2.3967,-2.3968,-2.3983,-2.3963,-2.3959,-2.3969,-2.3936,-2.3936,-2.3913,-2.3892,-2.39,-2.388,-2.387,-2.3872,-2.3849,-2.3882,-2.3871,-2.3846,-2.381,-2.3862,-2.3877,-2.3884,-2.379,-2.3789,-2.3788,-2.3787,0,0,-2.4063,-2.4024,-2.403,-2.402,-2.3995,-2.3995,-2.4004,-2.3993,-2.3993,-2.3981,-2.3986,-2.3984,-2.396,-2.3953,-2.3929,-2.3939,-2.3983,-2.3912,-2.3911,-2.3923,-2.4015,-2.4032,-2.404,-2.3964,-2.3966,-2.3967,-2.4015,0,-2.4116,-2.4127,-2.4097,-2.4115,-2.4116,-2.4075,-2.4082,-2.4068,-2.4049,-2.4047,-2.4026,-2.4024,-2.3995,-2.3989,-2.3998,-2.3976,-2.4,-2.3972,-2.3967,-2.3967,-2.397,-2.4048,-2.4066,-2.4113,-2.4021,-2.4022,-2.4023,0,-2.4178,-2.4169,-2.4188,-2.4161,-2.416,-2.4167,-2.4154,-2.4153,-2.4136,-2.4122,-2.4114,-2.4086,-2.4092,-2.406,-2.4067,-2.4049,-2.4046,-2.4035,-2.4036,-2.4032,-2.3996,-2.4043,-2.4127,-2.4133,-2.4032,-2.4032,-2.4031,0,-2.4243,-2.4236,-2.4245,-2.4239,-2.4208,-2.4214,-2.4201,-2.4182,-2.4178,-2.4168,-2.4165,-2.4156,-2.4151,-2.4144,-2.4115,-2.4095,-2.4125,-2.4091,-2.4112,-2.4113,-2.4118,-2.4117,-2.4199,-2.4121,-2.4121,-2.4121,-2.412,0,-2.4304,-2.4317,-2.4274,-2.428,-2.4292,-2.4258,-2.4272,-2.4256,-2.4239,-2.4241,-2.4206,-2.4209,-2.4171,-2.4169,-2.4147,-2.4155,-2.4154,-2.4141,-2.4135,-2.4143,-2.4144,-2.4138,-2.4132,-2.4122,-2.4122,-2.4122,-2.4121,0,-2.4377,-2.435,-2.4357,-2.4328,-2.4321,-2.4332,-2.4306,-2.431,-2.429,-2.4293,-2.4292,-2.426,-2.4256,-2.4227,-2.4217,-2.4202,-2.4217,-2.4206,-2.4223,-2.4218,-2.4239,-2.4237,-2.4318,-2.4326,-2.4245,-2.4246,-2.4247,0,-2.4416,-2.4425,-2.4397,-2.4395,-2.4384,-2.4383,-2.4378,-2.4346,-2.4342,-2.4323,-2.4329,-2.4323,-2.4315,-2.4311,-2.4287,-2.4279,-2.4265,-2.4294,-2.4263,-2.4271,-2.4262,-2.4261,-2.426,-2.43,-2.4301,-2.4302,-2.4302,0,-2.4488,-2.4473,-2.4468,-2.4458,-2.4454,-2.4444,-2.4433,-2.4434,-2.4398,-2.4396,-2.4391,-2.4386,-2.4375,-2.4368,-2.4356,-2.4343,-2.4316,-2.4313,-2.4317,-2.4323,-2.4332,-2.4325,-2.4238,-2.431,-2.4309,-2.4309,-2.4308,-2.4308,-2.4543,-2.4548,-2.4529,-2.4524,-2.4512,-2.4502,-2.4504,-2.4484,-2.448,-2.4468,-2.445,-2.4448,-2.443,-2.4411,-2.4401,-2.4398,-2.4383,-2.4389,-2.439,-2.4391,-2.4395,-2.4335,-2.4396,-2.4396,-2.4396,-2.4396,-2.4395,0,-2.461,-2.4596,-2.4592,-2.4577,-2.4573,-2.4549,-2.4536,-2.4534,-2.4532,-2.4518,-2.4512,-2.4506,-2.45,-2.4476,-2.4467,-2.4469,-2.4457,-2.4468,-2.4466,-2.4463,-2.441,-2.4407,-2.4478,-2.4478,-2.4478,-2.4478,-2.4478,-2.4478,-2.4644,-2.4651,-2.4635,-2.4636,-2.4622,-2.4619,-2.4613,-2.4604,-2.4592,-2.4587,-2.4582,-2.4567,-2.4548,-2.4538,-2.4531,-2.4524,-2.4521,-2.4535,-2.4524,-2.4475,-2.4467,-2.4459,-2.4455,-2.4536,-2.4536,-2.4576,-2.4577,-2.4577]},{"header":{"parameterUnit":"m.s-1","parameterCategory":1,"la1":30.2991,"la2":30.254,"lo1":-89.0895,"lo2":-89.0444,"dy":0.0017,"dx":0.0017,"nx":28,"ny":28,"refTime":"2024-04-01T03:00:00:Z","depth":0,"parameterNumber":3,"parameterNumberName":"V-component_of_WINDS"},"data":[0,0,0,0,0,0,0,0,0,0,0,0,0,0,0,0,0,0,0,0,0,0,0,0,0,0,0,0,0,0,0,0,0,0,0,0,0,0,0,0,0,0,0,0,0,0,0,0,0,0,0,0,0,0,0,0,0,0,3.2383,3.2385,0,3.2521,3.2523,3.2524,3.2618,3.2619,3.2619,3.262,3.2758,3.2761,3.2764,0,0,0,0,0,0,0,0,0,0,0,0,0,3.2198,3.2201,3.2383,3.2385,3.2386,3.2521,3.2523,3.2525,3.2618,3.2619,3.262,3.262,3.2757,3.2761,3.2764,0,0,0,0,0,0,0,0,0,0,0,0,0,3.2301,3.2202,3.2383,3.2449,3.2457,3.252,3.2523,3.2525,3.2618,3.2619,3.262,3.2621,3.2756,3.276,3.2765,3.2772,0,0,3.2779,3.2781,0,0,0,0,0,0,0,0,3.2295,3.2308,3.2438,3.2445,3.2453,3.2553,3.2508,3.2608,3.2617,3.2556,3.262,3.2621,3.2689,3.2699,3.2723,3.2779,3.2785,3.2779,3.2782,3.2784,3.2785,0,0,0,0,0,0,0,3.2288,3.2303,3.2438,3.244,3.2449,3.2472,3.2487,3.2528,3.2615,3.2562,3.2569,3.2584,3.2693,3.2718,3.2726,3.2787,3.2779,3.2783,3.2786,3.2788,3.2857,3.2857,0,0,0,0,0,0,3.2271,3.2296,3.2433,3.2442,3.2375,3.2474,3.2492,3.252,3.2615,3.263,3.2583,3.2588,3.271,3.2721,3.2732,3.2749,3.2784,3.2788,3.2791,3.2858,3.2857,3.2856,0,0,0,0,0,0,3.2266,3.2282,3.2428,3.2371,3.2391,3.2476,3.2507,3.2522,3.2547,3.2631,3.2647,3.2593,3.2711,3.2725,3.2762,3.2755,3.279,3.2794,3.2859,3.2858,3.2857,3.2781,0,0,0,0,0,0,3.2261,3.228,3.2284,3.237,3.2394,3.2456,3.2507,3.2524,3.2555,3.2563,3.2644,3.2658,3.2713,3.2755,3.2767,3.2762,3.2798,3.286,3.2859,3.2857,3.2785,3.2777,3.2771,0,0,0,0,0,3.2254,3.2257,3.2284,3.23,3.2401,3.2456,3.2469,3.2533,3.2554,3.2559,3.2613,3.2656,3.2753,3.2758,3.2772,3.2768,3.2861,3.2859,3.2857,3.2788,3.2779,3.2771,0,0,0,0,0,0,3.2166,3.2269,3.2301,3.2332,3.2384,3.2472,3.248,3.2521,3.2568,3.2573,3.2648,3.2666,3.2695,3.2735,3.2739,3.2781,3.2812,3.2813,3.2755,3.2747,3.274,3.2731,3.2802,0,0,0,0,0,3.2151,3.2187,3.2275,3.2293,3.2318,3.2394,3.242,3.2465,3.2522,3.2544,3.2601,3.2654,3.2697,3.2724,3.2767,3.279,3.281,3.2794,3.2787,3.2781,3.2782,3.2798,3.2793,3.285,3.285,3.285,0,0,3.2119,3.2179,3.2198,3.2277,3.2324,3.236,3.2412,3.2448,3.2475,3.255,3.2589,3.2632,3.2696,3.2726,3.2742,3.276,3.277,3.2779,3.2773,3.2777,3.2796,3.279,3.2785,3.2848,3.2849,3.2849,0,0,3.208,3.2128,3.2151,3.2196,3.2266,3.2316,3.2321,3.2402,3.2434,3.2475,3.2532,3.2565,3.2636,3.268,3.2712,3.2689,3.2731,3.2701,3.2666,3.2681,3.2677,3.2673,3.2667,3.2664,3.27,3.27,3.27,0,3.2031,3.2089,3.2156,3.219,3.2223,3.2293,3.2316,3.2356,3.2435,3.2457,3.2475,3.2568,3.2616,3.2658,3.2653,3.2675,3.2684,3.2693,3.2672,3.2669,3.2667,3.2662,3.2659,3.2696,3.2697,3.2697,3.2698,0,3.2027,3.2066,3.2075,3.2152,3.2186,3.2213,3.2285,3.2311,3.2352,3.24,3.244,3.25,3.2558,3.2571,3.261,3.2619,3.2628,3.2658,3.2692,3.2657,3.2653,3.2651,3.2691,3.2692,3.2693,3.2694,0,0,3.1938,3.2053,3.2055,3.2092,3.2173,3.2204,3.2234,3.2292,3.2314,3.2366,3.2394,3.2452,3.2482,3.2517,3.2562,3.2575,3.2555,3.2604,3.2607,3.2595,3.257,3.2549,3.2545,3.2582,3.2582,3.2582,3.2565,0,3.1914,3.1974,3.2035,3.2073,3.2111,3.2177,3.2203,3.2256,3.2301,3.2338,3.2388,3.2429,3.2463,3.2486,3.2501,3.2554,3.2552,3.2556,3.2609,3.261,3.2594,3.2543,3.2521,3.2502,3.2564,3.2564,3.2564,0,3.1893,3.1944,3.1986,3.2066,3.2084,3.2106,3.2165,3.22,3.226,3.2292,3.2332,3.238,3.2415,3.2442,3.2491,3.2493,3.2518,3.2547,3.2548,3.2557,3.2587,3.2553,3.2498,3.2496,3.2562,3.2562,3.2562,0,3.1828,3.1906,3.1942,3.1971,3.2063,3.2078,3.2117,3.2179,3.221,3.226,3.2281,3.2334,3.2363,3.2402,3.2463,3.2477,3.2506,3.2538,3.2534,3.2533,3.2539,3.2539,3.2489,3.2551,3.2551,3.2551,3.2551,0,3.1795,3.1819,3.1914,3.1936,3.1965,3.2034,3.206,3.2105,3.2159,3.2191,3.2249,3.2278,3.2355,3.2392,3.2439,3.2473,3.2485,3.2512,3.2525,3.2509,3.2506,3.2528,3.2532,3.255,3.255,3.2551,3.2551,0,3.1727,3.1792,3.1836,3.192,3.1942,3.1959,3.2031,3.2055,3.2103,3.2143,3.2156,3.2231,3.2278,3.2342,3.2408,3.244,3.2468,3.2487,3.2449,3.2457,3.245,3.2451,3.2416,3.2415,3.2474,3.2473,3.2473,0,3.1704,3.1724,3.1811,3.1837,3.1875,3.1916,3.1948,3.2017,3.2048,3.2119,3.2134,3.2185,3.2231,3.2302,3.2362,3.2413,3.2435,3.2419,3.2443,3.2426,3.2437,3.2436,3.244,3.2414,3.2413,3.2412,3.2411,0,3.1656,3.1687,3.1732,3.1789,3.1826,3.1873,3.1923,3.1941,3.2019,3.2051,3.2101,3.2136,3.2204,3.2255,3.2314,3.2353,3.2395,3.2403,3.2405,3.239,3.2368,3.2382,3.2435,3.2404,3.2405,3.2405,3.2406,3.2406,3.1612,3.1633,3.1698,3.1747,3.1791,3.1837,3.1864,3.1916,3.1959,3.2021,3.2058,3.2106,3.2166,3.225,3.2287,3.2325,3.2342,3.2344,3.2346,3.2346,3.2341,3.236,3.2336,3.2336,3.2336,3.2336,3.2337,0,3.1569,3.1614,3.1658,3.1727,3.1764,3.1801,3.1858,3.1888,3.193,3.1983,3.2026,3.2083,3.2133,3.2196,3.225,3.2268,3.2289,3.228,3.2281,3.229,3.2322,3.2316,3.2263,3.2263,3.2263,3.2263,3.2263,3.2263,3.1551,3.159,3.1629,3.1691,3.1735,3.1784,3.1814,3.1856,3.1899,3.196,3.2002,3.2044,3.2101,3.216,3.2206,3.2224,3.2242,3.2227,3.2251,3.228,3.2287,3.2294,3.2288,3.223,3.223,3.2216,3.2215,3.2215]}]]